Regional Weather Roundup
Issued by NWS

Home | Current Version | Previous Version | Graphics & Text | Print | Product List | Glossary On
Versions: 1 2 3 4 5 6 7 8 9 10 11 12 13 14 15 16 17 18 19 20 21 22 23 24 25 26 27 28 29 30 31 32 33 34 35 36 37 38 39 40 41 42 43 44 45 46 47 48 49 50
000
ASUS43 KOAX 251910
RWRNE

WEATHER ROUNDUP FOR NEBRASKA
NATIONAL WEATHER SERVICE OMAHA NE
200 PM CDT WED MAY 25 2016

NOTES: SATELLITE DATA IS BEING USED TO AUGMENT CLOUD COVER ABOVE
       12000 FEET.
       "FAIR" INDICATES FEW OR NO CLOUDS BELOW 12,000 FEET WITH NO
       SIGNIFICANT WEATHER AND/OR OBSTRUCTIONS TO VISIBILITY.

  * THESE STATIONS DO NOT REPORT WEATHER SUCH AS RAIN...SNOW OR FOG.

NEZ001>004-019>022-054>056-252000-
NEBRASKA PANHANDLE

CITY           SKY/WX    TMP DP  RH WIND       PRES   REMARKS
SCOTTSBLUFF    MOSUNNY   70  36  28 W23       29.93S
ALLIANCE       SUNNY     68  42  38 SW15      29.91F
CHADRON        LGT RAIN  66  47  50 W7        29.89F
KIMBALL        PTSUNNY   66  36  33 NW9G21    29.99R
SIDNEY         SUNNY     72  45  37 SW10G20   29.96F
$$

NEZ057>060-069>072-079>082-252000-
SOUTHWEST NEBRASKA

CITY           SKY/WX    TMP DP  RH WIND       PRES   REMARKS
NORTH PLATTE   SUNNY     76  56  49 W6        29.89F
IMPERIAL       SUNNY     73  54  51 VRB3      29.92F
LEXINGTON      MOSUNNY   74  59  58 CALM      29.88S
MCCOOK         SUNNY     76  56  49 CALM      29.88F
OGALLALA       SUNNY     73  55  53 W10       29.93S
$$

NEZ005>010-023>029-035>040-094-252000-
NORTH CENTRAL NEBRASKA

CITY           SKY/WX    TMP DP  RH WIND       PRES   REMARKS
VALENTINE      SUNNY     76  51  41 W10       29.84F
AINSWORTH      MOSUNNY   75  55  50 W16G22    29.86F
BROKEN BOW     MOSUNNY   75  59  57 W14       29.88S
O`NEILL        SUNNY     78  56  47 SW12      29.84S
ORD            MOSUNNY   77  59  53 SW14      29.84F
THEDFORD       MOSUNNY   76  58  52 W17G24    29.89F
$$

NEZ041-046>049-061>064-073>077-083>087-252000-
SOUTH CENTRAL NEBRASKA

CITY           SKY/WX    TMP DP  RH WIND       PRES   REMARKS
GRAND ISLAND   MOSUNNY   76  61  59 SW6       29.86S
AURORA         CLOUDY    76  63  64 SW15      29.85S
HASTINGS       PTSUNNY   73  62  68 S10       29.85S
HEBRON         PTSUNNY   73  65  75 S14       29.85F
HOLDREGE       CLOUDY    72  60  66 SW7       29.87R
KEARNEY *      PTSUNNY   73  61  64 SW8       29.88S
YORK           PTSUNNY   75  64  69 S15       29.84F
$$

NEZ011>018-030>034-042>045-252000-
NORTHEAST NEBRASKA

CITY           SKY/WX    TMP DP  RH WIND       PRES   REMARKS
NORFOLK        MOSUNNY   79  60  52 SW13      29.83F
ALBION         PTSUNNY   77  61  57 SW9       29.85F
BLAIR          SUNNY     77  64  63 SW10      29.85R
FREMONT        SUNNY     77  61  57 SW10G17   29.85S
TEKAMAH        SUNNY     79  60  52 S10       29.83F
WAYNE          MOSUNNY   76  64  65 SW10G17   29.83F
$$

NEZ050>053-065>068-078-088>093-252000-
SOUTHEAST NEBRASKA

CITY           SKY/WX    TMP DP  RH WIND       PRES   REMARKS
LINCOLN        MOSUNNY   77  64  64 S20G29    29.83S
OMAHA EPPLEY   MOSUNNY   79  62  56 S10       29.84R
BEATRICE       CLOUDY    73  63  70 S16G24    29.86R
FALLS CITY     MOSUNNY   76  64  66 S18G25    29.87F
NEBRASKA CITY  PTSUNNY   76  62  61 S21       29.85S
PLATTSMOUTH    MOSUNNY   80  62  54 S20G29    29.84S
$$

NEZ044-045-051>053-067-252000-
OMAHA AREA

CITY           SKY/WX    TMP DP  RH WIND       PRES   REMARKS
OMAHA EPPLEY   MOSUNNY   79  62  56 S10       29.84R
BLAIR          SUNNY     77  64  63 SW10      29.85R
FREMONT        SUNNY     77  61  57 SW10G17   29.85S
MILLARD        SUNNY     79  63  58 S8G16     29.83F
OFFUTT AFB     SUNNY     78  63  59 SE14      29.83S
PLATTSMOUTH    MOSUNNY   80  62  54 S20G29    29.84S
WAHOO          MOCLDY    79  63  56 S10G20    29.84S
$$



USA.gov is the U.S. government's official web portal to all federal, state and local government web resources and services.